Time,TemperatureF,DewpointF,PressureIn,WindDirection,WindDirectionDegrees,WindSpeedMPH,WindSpeedGustMPH,Humidity,HourlyPrecipIn,Conditions,Clouds,dailyrainin,SoftwareType,DateUTC
2013-01-16 00:03:00,36.1,31.8,30.07,NW,315,2.3,2.3,84,0.00,RA,,0.00,WeatherDisplay:10.37,2013-01-16 06:03:00,
2013-01-16 00:08:00,36.1,32.1,30.07,NW,315,3.5,3.5,85,0.00,CLR,,0.00,WeatherDisplay:10.37,2013-01-16 06:08:00,
2013-01-16 00:13:00,36.0,31.6,30.06,NW,315,3.5,3.5,84,0.00,CLR,,0.00,WeatherDisplay:10.37,2013-01-16 06:13:00,
2013-01-16 00:18:00,36.0,31.6,30.07,North,0,3.5,3.5,84,0.00,CLR,,0.00,WeatherDisplay:10.37,2013-01-16 06:18:00,
2013-01-16 00:23:00,36.0,31.6,30.07,NW,315,3.5,3.5,84,0.00,CLR,,0.00,WeatherDisplay:10.37,2013-01-16 06:23:00,
2013-01-16 00:28:00,36.0,31.6,30.07,NW,315,3.5,3.5,84,0.00,CLR,,0.00,WeatherDisplay:10.37,2013-01-16 06:28:00,
2013-01-16 00:33:00,36.0,31.6,30.06,NW,315,3.5,3.5,84,0.00,CLR,,0.00,WeatherDisplay:10.37,2013-01-16 06:33:00,
2013-01-16 00:38:00,36.1,31.8,30.07,NW,315,5.8,5.8,84,0.00,CLR,,0.00,WeatherDisplay:10.37,2013-01-16 06:38:00,
2013-01-16 00:44:00,36.1,31.8,30.08,NW,315,4.6,4.6,84,0.00,CLR,,0.00,WeatherDisplay:10.37,2013-01-16 06:44:00,
2013-01-16 00:49:00,36.1,31.8,30.08,North,0,3.5,3.5,84,0.00,CLR,,0.00,WeatherDisplay:10.37,2013-01-16 06:49:00,
2013-01-16 00:54:00,36.1,31.8,30.07,North,0,5.8,5.8,84,0.00,CLR,,0.00,WeatherDisplay:10.37,2013-01-16 06:54:00,
2013-01-16 00:59:00,36.3,31.9,30.07,NW,315,6.9,6.9,84,0.00,CLR,,0.00,WeatherDisplay:10.37,2013-01-16 06:59:00,
2013-01-16 01:04:00,36.3,31.7,30.07,NNW,338,4.6,4.6,83,0.00,CLR,,0.00,WeatherDisplay:10.37,2013-01-16 07:04:00,
2013-01-16 01:09:00,36.3,31.7,30.07,North,0,5.8,5.8,83,0.00,CLR,,0.00,WeatherDisplay:10.37,2013-01-16 07:09:00,
2013-01-16 01:14:00,36.3,31.7,30.07,NNW,338,3.5,3.5,83,0.00,CLR,,0.00,WeatherDisplay:10.37,2013-01-16 07:14:00,
2013-01-16 01:19:00,36.5,31.5,30.08,NW,315,8.1,8.1,82,0.00,CLR,,0.00,WeatherDisplay:10.37,2013-01-16 07:19:00,
2013-01-16 01:24:00,36.5,31.5,30.08,NW,315,4.6,4.6,82,0.00,CLR,,0.00,WeatherDisplay:10.37,2013-01-16 07:24:00,
2013-01-16 01:29:00,36.7,31.7,30.08,NW,315,4.6,4.6,82,0.00,CLR,,0.00,WeatherDisplay:10.37,2013-01-16 07:29:00,
2013-01-16 01:34:00,36.7,31.4,30.08,NW,315,5.8,5.8,81,0.00,CLR,,0.00,WeatherDisplay:10.37,2013-01-16 07:34:00,
2013-01-16 01:39:00,36.7,31.4,30.08,NW,315,5.4,5.4,81,0.00,CLR,,0.00,WeatherDisplay:10.37,2013-01-16 07:39:00,
2013-01-16 01:44:00,36.7,31.4,30.07,NW,315,3.5,3.5,81,0.00,CLR,,0.00,WeatherDisplay:10.37,2013-01-16 07:44:00,
2013-01-16 01:49:00,36.7,31.4,30.08,NW,315,3.5,3.5,81,0.00,CLR,,0.00,WeatherDisplay:10.37,2013-01-16 07:49:00,
2013-01-16 01:54:00,36.7,31.1,30.08,NE,45,5.8,5.8,80,0.00,CLR,,0.00,WeatherDisplay:10.37,2013-01-16 07:54:00,
2013-01-16 01:59:00,36.7,31.1,30.07,NW,315,4.6,4.6,80,0.00,CLR,,0.00,WeatherDisplay:10.37,2013-01-16 07:59:00,
2013-01-16 02:04:00,36.7,31.1,30.02,NW,315,3.5,3.5,80,0.00,CLR,,0.00,WeatherDisplay:10.37,2013-01-16 08:04:00,
2013-01-16 02:09:00,36.5,30.6,30.03,NW,315,5.8,5.8,79,0.00,CLR,,0.00,WeatherDisplay:10.37,2013-01-16 08:09:00,
2013-01-16 02:14:00,36.5,30.3,30.05,NW,315,5.8,5.8,78,0.00,CLR,,0.00,WeatherDisplay:10.37,2013-01-16 08:14:00,
2013-01-16 02:19:00,36.5,30.3,30.04,NW,315,4.6,4.6,78,0.00,CLR,,0.00,WeatherDisplay:10.37,2013-01-16 08:19:00,
2013-01-16 02:24:00,36.5,30.0,30.06,North,0,5.8,5.8,77,0.00,CLR,,0.00,WeatherDisplay:10.37,2013-01-16 08:24:00,
2013-01-16 02:29:00,36.7,29.8,30.06,NW,315,5.8,5.8,76,0.00,CLR,,0.00,WeatherDisplay:10.37,2013-01-16 08:29:00,
2013-01-16 02:34:00,36.7,29.5,30.06,NW,315,3.5,3.5,75,0.00,CLR,,0.00,WeatherDisplay:10.37,2013-01-16 08:34:00,
2013-01-16 02:39:00,36.7,29.5,30.06,North,0,5.8,5.8,75,0.00,CLR,,0.00,WeatherDisplay:10.37,2013-01-16 08:39:00,
2013-01-16 02:44:00,36.7,29.2,30.07,NW,315,4.6,4.6,74,0.00,CLR,,0.00,WeatherDisplay:10.37,2013-01-16 08:44:00,
2013-01-16 02:49:00,36.7,29.2,30.07,NW,315,3.5,3.5,74,0.00,CLR,,0.00,WeatherDisplay:10.37,2013-01-16 08:49:00,
2013-01-16 02:54:00,36.7,29.2,30.08,NW,315,4.6,4.6,74,0.00,CLR,,0.00,WeatherDisplay:10.37,2013-01-16 08:54:00,
2013-01-16 02:59:00,36.7,29.5,30.08,West,270,2.3,2.3,75,0.00,CLR,,0.00,WeatherDisplay:10.37,2013-01-16 08:59:00,
2013-01-16 03:04:00,36.7,29.5,30.09,West,270,3.5,3.5,75,0.00,CLR,,0.00,WeatherDisplay:10.37,2013-01-16 09:04:00,
2013-01-16 03:09:00,36.7,29.8,30.08,NW,315,3.5,3.5,76,0.00,CLR,,0.00,WeatherDisplay:10.37,2013-01-16 09:09:00,
2013-01-16 03:14:00,36.7,30.1,30.09,West,270,2.3,2.3,77,0.00,CLR,,0.00,WeatherDisplay:10.37,2013-01-16 09:14:00,
2013-01-16 03:19:00,36.5,30.3,30.08,West,270,3.5,3.5,78,0.00,CLR,,0.00,WeatherDisplay:10.37,2013-01-16 09:19:00,
2013-01-16 03:24:00,36.5,30.3,30.08,NW,315,3.5,3.5,78,0.00,CLR,,0.00,WeatherDisplay:10.37,2013-01-16 09:24:00,
2013-01-16 03:29:00,36.7,30.8,30.08,NW,315,2.3,2.3,79,0.00,CLR,,0.00,WeatherDisplay:10.37,2013-01-16 09:29:00,
2013-01-16 03:34:00,36.5,30.6,30.09,NW,315,2.3,2.3,79,0.00,CLR,,0.00,WeatherDisplay:10.37,2013-01-16 09:34:00,
2013-01-16 03:39:00,36.5,30.9,30.08,NW,315,3.5,3.5,80,0.00,CLR,,0.00,WeatherDisplay:10.37,2013-01-16 09:39:00,
2013-01-16 03:44:00,36.5,30.9,30.08,NW,315,4.6,4.6,80,0.00,CLR,,0.00,WeatherDisplay:10.37,2013-01-16 09:44:00,
2013-01-16 03:49:00,36.5,30.9,30.08,WNW,292,3.5,3.5,80,0.00,CLR,,0.00,WeatherDisplay:10.37,2013-01-16 09:49:00,
2013-01-16 03:54:00,36.5,30.6,30.08,NW,315,3.5,3.5,79,0.00,CLR,,0.00,WeatherDisplay:10.37,2013-01-16 09:54:00,
2013-01-16 03:59:00,36.5,30.3,30.09,NW,315,3.5,3.5,78,0.00,CLR,,0.00,WeatherDisplay:10.37,2013-01-16 09:59:00,
2013-01-16 04:04:00,36.5,30.3,30.09,NW,315,3.5,3.5,78,0.00,CLR,,0.00,WeatherDisplay:10.37,2013-01-16 10:04:00,
2013-01-16 04:09:00,36.5,29.7,30.09,West,270,3.5,3.5,76,0.00,CLR,,0.00,WeatherDisplay:10.37,2013-01-16 10:09:00,
2013-01-16 04:14:00,36.3,29.2,30.09,North,0,5.8,5.8,75,0.00,CLR,,0.00,WeatherDisplay:10.37,2013-01-16 10:14:00,
2013-01-16 04:19:00,36.3,28.8,30.09,NW,315,5.8,5.8,74,0.00,CLR,,0.00,WeatherDisplay:10.37,2013-01-16 10:19:00,
2013-01-16 04:24:00,36.3,28.5,30.09,NW,315,3.5,3.5,73,0.00,CLR,,0.00,WeatherDisplay:10.37,2013-01-16 10:24:00,
2013-01-16 04:29:00,36.3,28.5,30.09,NW,315,4.6,4.6,73,0.00,CLR,,0.00,WeatherDisplay:10.37,2013-01-16 10:29:00,
2013-01-16 04:34:00,36.1,28.0,30.09,NW,315,5.8,5.8,72,0.00,CLR,,0.00,WeatherDisplay:10.37,2013-01-16 10:34:00,
2013-01-16 04:39:00,36.0,27.8,30.09,NW,315,4.6,4.6,72,0.00,CLR,,0.00,WeatherDisplay:10.37,2013-01-16 10:39:00,
2013-01-16 04:44:00,36.0,27.8,30.09,NW,315,3.5,3.5,72,0.00,CLR,,0.00,WeatherDisplay:10.37,2013-01-16 10:44:00,
2013-01-16 04:49:00,36.0,27.8,30.09,NW,315,5.8,5.8,72,0.00,CLR,,0.00,WeatherDisplay:10.37,2013-01-16 10:49:00,
2013-01-16 04:54:00,36.0,27.8,30.09,NW,315,3.5,3.5,72,0.00,CLR,,0.00,WeatherDisplay:10.37,2013-01-16 10:54:00,
2013-01-16 04:59:00,35.8,27.3,30.09,West,270,5.8,5.8,71,0.00,CLR,,0.00,WeatherDisplay:10.37,2013-01-16 10:59:00,
2013-01-16 05:04:00,35.8,27.3,30.09,NW,315,3.5,3.5,71,0.00,CLR,,0.00,WeatherDisplay:10.37,2013-01-16 11:04:00,
2013-01-16 05:09:00,35.8,27.3,30.09,NW,315,3.5,3.5,71,0.00,CLR,,0.00,WeatherDisplay:10.37,2013-01-16 11:09:00,
2013-01-16 05:14:00,35.8,27.6,30.10,North,0,3.5,3.5,72,0.00,CLR,,0.00,WeatherDisplay:10.37,2013-01-16 11:14:00,
2013-01-16 05:19:00,35.6,27.5,30.10,NW,315,3.5,3.5,72,0.00,CLR,,0.00,WeatherDisplay:10.37,2013-01-16 11:19:00,
2013-01-16 05:24:00,35.6,27.5,30.11,West,270,3.5,3.5,72,0.00,CLR,,0.00,WeatherDisplay:10.37,2013-01-16 11:24:00,
2013-01-16 05:29:00,35.6,27.5,30.11,West,270,4.6,4.6,72,0.00,CLR,,0.00,WeatherDisplay:10.37,2013-01-16 11:29:00,
2013-01-16 05:34:00,35.6,27.1,30.11,NW,315,4.6,4.6,71,0.00,CLR,,0.00,WeatherDisplay:10.37,2013-01-16 11:34:00,
2013-01-16 05:39:00,35.4,27.6,30.11,NW,315,3.5,3.5,73,0.00,CLR,,0.00,WeatherDisplay:10.37,2013-01-16 11:39:00,
2013-01-16 05:44:00,35.4,27.3,30.11,West,270,3.5,3.5,72,0.00,CLR,,0.00,WeatherDisplay:10.37,2013-01-16 11:44:00,
2013-01-16 05:49:00,35.4,27.3,30.11,NW,315,2.3,2.3,72,0.00,CLR,,0.00,WeatherDisplay:10.37,2013-01-16 11:49:00,
2013-01-16 05:54:00,35.2,27.1,30.11,West,270,4.6,4.6,72,0.00,CLR,,0.00,WeatherDisplay:10.37,2013-01-16 11:54:00,
2013-01-16 05:59:00,35.1,26.9,30.11,NW,315,3.5,3.5,72,0.00,CLR,,0.00,WeatherDisplay:10.37,2013-01-16 11:59:00,
2013-01-16 06:04:00,35.1,26.9,30.11,NW,315,2.3,2.3,72,0.00,CLR,,0.00,WeatherDisplay:10.37,2013-01-16 12:04:00,
2013-01-16 06:09:00,34.9,27.1,30.11,NW,315,3.5,3.5,73,0.00,CLR,,0.00,WeatherDisplay:10.37,2013-01-16 12:09:00,
2013-01-16 06:14:00,34.7,26.9,30.11,West,270,3.5,3.5,73,0.00,CLR,,0.00,WeatherDisplay:10.37,2013-01-16 12:14:00,
2013-01-16 06:19:00,34.5,26.8,30.12,West,270,3.5,3.5,73,0.00,CLR,,0.00,WeatherDisplay:10.37,2013-01-16 12:19:00,
2013-01-16 06:24:00,34.5,27.1,30.12,North,0,4.6,4.6,74,0.00,CLR,,0.00,WeatherDisplay:10.37,2013-01-16 12:24:00,
2013-01-16 06:29:00,34.3,26.9,30.11,West,270,3.5,3.5,74,0.00,CLR,,0.00,WeatherDisplay:10.37,2013-01-16 12:29:00,
2013-01-16 06:34:00,34.2,26.7,30.12,NW,315,4.6,4.6,74,0.00,CLR,,0.00,WeatherDisplay:10.37,2013-01-16 12:34:00,
2013-01-16 06:39:00,33.8,26.7,30.12,NW,315,3.5,3.5,75,0.00,CLR,,0.00,WeatherDisplay:10.37,2013-01-16 12:39:00,
2013-01-16 06:44:00,33.6,26.9,30.13,NW,315,3.5,3.5,76,0.00,CLR,,0.00,WeatherDisplay:10.37,2013-01-16 12:44:00,
2013-01-16 06:49:00,33.4,26.7,30.13,NW,315,2.3,2.3,76,0.00,CLR,,0.00,WeatherDisplay:10.37,2013-01-16 12:49:00,
2013-01-16 06:54:00,33.1,26.3,30.13,WSW,248,3.5,3.5,76,0.00,CLR,,0.00,WeatherDisplay:10.37,2013-01-16 12:54:00,
2013-01-16 06:59:00,32.9,26.2,30.14,NW,315,3.5,3.5,76,0.00,CLR,,0.00,WeatherDisplay:10.37,2013-01-16 12:59:00,
2013-01-16 07:05:00,32.9,26.2,30.13,West,270,3.5,3.5,76,0.00,CLR,,0.00,WeatherDisplay:10.37,2013-01-16 13:05:00,
2013-01-16 07:10:00,32.7,26.0,30.13,West,270,3.5,3.5,76,0.00,CLR,,0.00,WeatherDisplay:10.37,2013-01-16 13:10:00,
2013-01-16 07:15:00,32.4,25.6,30.13,NW,315,4.6,4.6,76,0.00,CLR,,0.00,WeatherDisplay:10.37,2013-01-16 13:15:00,
2013-01-16 07:20:00,32.4,25.6,30.14,NW,315,6.9,6.9,76,0.00,CLR,,0.00,WeatherDisplay:10.37,2013-01-16 13:20:00,
2013-01-16 07:25:00,32.4,25.6,30.14,West,270,3.5,3.5,76,0.00,CLR,,0.00,WeatherDisplay:10.37,2013-01-16 13:25:00,
2013-01-16 07:30:00,32.2,25.5,30.14,NW,315,3.5,3.5,76,0.00,CLR,,0.00,WeatherDisplay:10.37,2013-01-16 13:30:00,
2013-01-16 07:35:00,32.2,25.5,30.14,North,0,3.5,3.5,76,0.00,CLR,,0.00,WeatherDisplay:10.37,2013-01-16 13:35:00,
2013-01-16 07:40:00,32.2,25.5,30.14,West,270,3.5,3.5,76,0.00,CLR,,0.00,WeatherDisplay:10.37,2013-01-16 13:40:00,
2013-01-16 07:45:00,32.2,25.5,30.15,North,0,3.5,3.5,76,0.00,CLR,,0.00,WeatherDisplay:10.37,2013-01-16 13:45:00,
2013-01-16 07:50:00,32.4,25.6,30.14,West,270,3.5,3.5,76,0.00,CLR,,0.00,WeatherDisplay:10.37,2013-01-16 13:50:00,
2013-01-16 07:55:00,32.5,25.8,30.15,NW,315,2.3,2.3,76,0.00,CLR,,0.00,WeatherDisplay:10.37,2013-01-16 13:55:00,
2013-01-16 08:00:00,32.9,26.2,30.14,North,0,3.5,3.5,76,0.00,CLR,,0.00,WeatherDisplay:10.37,2013-01-16 14:00:00,
2013-01-16 08:05:00,32.9,26.2,30.15,North,0,3.5,3.5,76,0.00,CLR,,0.00,WeatherDisplay:10.37,2013-01-16 14:05:00,
2013-01-16 08:10:00,33.4,26.4,30.15,WNW,292,5.8,5.8,75,0.00,CLR,,0.00,WeatherDisplay:10.37,2013-01-16 14:10:00,
2013-01-16 08:15:00,33.8,26.1,30.15,NW,315,3.5,3.5,73,0.00,CLR,,0.00,WeatherDisplay:10.37,2013-01-16 14:15:00,
2013-01-16 08:20:00,34.0,25.9,30.16,West,270,3.5,3.5,72,0.00,CLR,,0.00,WeatherDisplay:10.37,2013-01-16 14:20:00,
2013-01-16 08:25:00,34.7,26.6,30.16,SW,225,3.5,3.5,72,0.00,CLR,,0.00,WeatherDisplay:10.37,2013-01-16 14:25:00,
2013-01-16 08:30:00,35.4,26.6,30.16,NW,315,4.6,4.6,70,0.00,CLR,,0.00,WeatherDisplay:10.37,2013-01-16 14:30:00,
2013-01-16 08:35:00,35.8,26.2,30.16,West,270,6.9,6.9,68,0.00,CLR,,0.00,WeatherDisplay:10.37,2013-01-16 14:35:00,
2013-01-16 08:40:00,36.7,26.0,30.16,NW,315,4.6,4.6,65,0.00,CLR,,0.00,WeatherDisplay:10.37,2013-01-16 14:40:00,
2013-01-16 08:45:00,36.5,25.1,30.16,West,270,5.8,5.8,63,0.00,CLR,,0.00,WeatherDisplay:10.37,2013-01-16 14:45:00,
2013-01-16 08:50:00,37.0,25.2,30.16,NW,315,5.8,5.8,62,0.00,CLR,,0.00,WeatherDisplay:10.37,2013-01-16 14:50:00,
2013-01-16 08:55:00,37.6,26.9,30.16,North,0,3.8,3.8,65,0.00,CLR,,0.00,WeatherDisplay:10.37,2013-01-16 14:55:00,
2013-01-16 09:00:00,38.3,27.2,30.16,North,0,4.6,4.6,64,0.00,CLR,,0.00,WeatherDisplay:10.37,2013-01-16 15:00:00,
2013-01-16 09:05:00,39.4,27.0,30.16,North,0,5.8,5.8,61,0.00,CLR,,0.00,WeatherDisplay:10.37,2013-01-16 15:05:00,
2013-01-16 09:10:00,39.6,26.0,30.17,NW,315,5.8,5.8,58,0.00,CLR,,0.00,WeatherDisplay:10.37,2013-01-16 15:10:00,
2013-01-16 09:15:00,39.4,25.0,30.17,NW,315,3.5,3.5,56,0.00,CLR,,0.00,WeatherDisplay:10.37,2013-01-16 15:15:00,
2013-01-16 09:20:00,40.3,25.8,30.17,West,270,5.8,5.8,56,0.00,CLR,,0.00,WeatherDisplay:10.37,2013-01-16 15:20:00,
2013-01-16 09:25:00,40.1,25.2,30.17,NW,315,3.5,3.5,55,0.00,CLR,,0.00,WeatherDisplay:10.37,2013-01-16 15:25:00,
2013-01-16 09:30:00,39.9,24.6,30.17,North,0,5.8,5.8,54,0.00,CLR,,0.00,WeatherDisplay:10.37,2013-01-16 15:30:00,
2013-01-16 09:35:00,39.9,24.2,30.17,NW,315,10.4,10.4,53,0.01,RA,,0.01,WeatherDisplay:10.37,2013-01-16 15:35:00,
2013-01-16 09:40:00,40.1,23.9,30.18,NE,45,3.5,3.5,52,0.01,RA,,0.01,WeatherDisplay:10.37,2013-01-16 15:40:00,
2013-01-16 09:45:00,40.5,24.2,30.18,North,0,8.1,8.1,52,0.01,CLR,,0.01,WeatherDisplay:10.37,2013-01-16 15:45:00,
2013-01-16 09:50:00,40.1,23.4,30.18,West,270,5.8,5.8,51,0.01,CLR,,0.01,WeatherDisplay:10.37,2013-01-16 15:50:00,
2013-01-16 09:55:00,40.8,24.5,30.17,North,0,3.5,3.5,52,0.01,CLR,,0.01,WeatherDisplay:10.37,2013-01-16 15:55:00,
2013-01-16 10:00:00,41.2,23.4,30.17,North,0,5.8,5.8,49,0.01,CLR,,0.01,WeatherDisplay:10.37,2013-01-16 16:00:00,
2013-01-16 10:05:00,41.2,23.4,30.17,North,0,5.8,5.8,49,0.01,CLR,,0.01,WeatherDisplay:10.37,2013-01-16 16:05:00,
2013-01-16 10:10:00,41.5,23.3,30.17,West,270,5.8,5.8,48,0.01,CLR,,0.01,WeatherDisplay:10.37,2013-01-16 16:10:00,
2013-01-16 10:15:00,41.4,22.6,30.17,North,0,5.8,5.8,47,0.01,CLR,,0.01,WeatherDisplay:10.37,2013-01-16 16:15:00,
2013-01-16 10:20:00,41.0,21.3,30.17,NW,315,6.9,6.9,45,0.01,CLR,,0.01,WeatherDisplay:10.37,2013-01-16 16:20:00,
2013-01-16 10:25:00,41.2,21.9,30.16,NW,315,5.8,5.8,46,0.01,CLR,,0.01,WeatherDisplay:10.37,2013-01-16 16:25:00,
2013-01-16 10:30:00,41.4,22.1,30.16,North,0,6.9,6.9,46,0.01,CLR,,0.01,WeatherDisplay:10.37,2013-01-16 16:30:00,
2013-01-16 10:35:00,41.4,21.6,30.16,NW,315,5.8,5.8,45,0.00,CLR,,0.01,WeatherDisplay:10.37,2013-01-16 16:35:00,
2013-01-16 10:40:00,41.9,21.5,30.16,NW,315,6.9,6.9,44,0.00,CLR,,0.01,WeatherDisplay:10.37,2013-01-16 16:40:00,
2013-01-16 10:45:00,42.4,22.0,30.15,NW,315,4.6,4.6,44,0.00,CLR,,0.01,WeatherDisplay:10.37,2013-01-16 16:45:00,
2013-01-16 10:50:00,43.3,22.3,30.15,NNW,338,4.5,4.5,43,0.00,CLR,,0.01,WeatherDisplay:10.37,2013-01-16 16:50:00,
2013-01-16 10:55:00,43.5,22.5,30.15,North,0,6.9,6.9,43,0.00,CLR,,0.01,WeatherDisplay:10.37,2013-01-16 16:55:00,
2013-01-16 11:00:00,43.5,21.9,30.15,North,0,5.8,5.8,42,0.00,CLR,,0.01,WeatherDisplay:10.37,2013-01-16 17:00:00,
2013-01-16 11:05:00,43.9,22.2,30.15,North,0,5.8,5.8,42,0.00,CLR,,0.01,WeatherDisplay:10.37,2013-01-16 17:05:00,
2013-01-16 11:10:00,44.4,22.7,30.15,NW,315,6.9,6.9,42,0.00,CLR,,0.01,WeatherDisplay:10.37,2013-01-16 17:10:00,
2013-01-16 11:15:00,43.9,19.9,30.15,West,270,6.9,6.9,38,0.00,CLR,,0.01,WeatherDisplay:10.37,2013-01-16 17:15:00,
2013-01-16 11:20:00,44.2,20.8,30.15,North,0,6.9,6.9,39,0.00,CLR,,0.01,WeatherDisplay:10.37,2013-01-16 17:20:00,
2013-01-16 11:25:00,44.4,21.0,30.14,NNE,22,6.9,6.9,39,0.00,CLR,,0.01,WeatherDisplay:10.37,2013-01-16 17:25:00,
2013-01-16 11:30:00,44.2,19.6,30.14,North,0,8.1,8.1,37,0.00,CLR,,0.01,WeatherDisplay:10.37,2013-01-16 17:30:00,
2013-01-16 11:35:00,44.8,20.1,30.13,ENE,68,5.8,5.8,37,0.00,CLR,,0.01,WeatherDisplay:10.37,2013-01-16 17:35:00,
2013-01-16 11:40:00,45.5,20.7,30.13,SW,225,4.6,4.6,37,0.00,CLR,,0.01,WeatherDisplay:10.37,2013-01-16 17:40:00,
2013-01-16 11:45:00,45.9,19.7,30.13,West,270,6.9,6.9,35,0.00,CLR,,0.01,WeatherDisplay:10.37,2013-01-16 17:45:00,
2013-01-16 11:50:00,46.0,19.9,30.13,NW,315,5.8,6.9,35,0.00,CLR,,0.01,WeatherDisplay:10.37,2013-01-16 17:50:00,
2013-01-16 11:55:00,45.7,18.9,30.13,NW,315,8.1,8.1,34,0.00,CLR,,0.01,WeatherDisplay:10.37,2013-01-16 17:55:00,
2013-01-16 12:00:00,46.4,20.9,30.12,NW,315,5.8,5.8,36,0.00,CLR,,0.01,WeatherDisplay:10.37,2013-01-16 18:00:00,
2013-01-16 12:05:00,46.4,20.9,30.12,NW,315,4.6,4.6,36,0.00,CLR,,0.01,WeatherDisplay:10.37,2013-01-16 18:05:00,
2013-01-16 12:10:00,48.4,22.0,30.12,North,0,5.8,5.8,35,0.00,CLR,,0.01,WeatherDisplay:10.37,2013-01-16 18:10:00,
2013-01-16 12:15:00,47.7,21.3,30.11,NW,315,8.1,8.1,35,0.00,CLR,,0.01,WeatherDisplay:10.37,2013-01-16 18:15:00,
2013-01-16 12:20:00,46.9,20.7,30.11,NE,45,5.8,5.8,35,0.00,CLR,,0.01,WeatherDisplay:10.37,2013-01-16 18:20:00,
2013-01-16 12:25:00,46.8,19.8,30.10,West,270,6.9,6.9,34,0.00,CLR,,0.01,WeatherDisplay:10.37,2013-01-16 18:25:00,
2013-01-16 12:30:00,46.4,19.5,30.10,NE,45,4.6,4.6,34,0.00,CLR,,0.01,WeatherDisplay:10.37,2013-01-16 18:30:00,
2013-01-16 12:35:00,46.6,20.4,30.09,West,270,5.8,5.8,35,0.00,CLR,,0.01,WeatherDisplay:10.37,2013-01-16 18:35:00,
2013-01-16 12:41:00,47.5,21.2,30.09,NE,45,5.8,5.8,35,0.00,CLR,,0.01,WeatherDisplay:10.37,2013-01-16 18:41:00,
2013-01-16 12:46:00,48.0,21.6,30.09,North,0,4.6,4.6,35,0.00,CLR,,0.01,WeatherDisplay:10.37,2013-01-16 18:46:00,
2013-01-16 12:51:00,48.0,21.6,30.09,NW,315,8.1,8.1,35,0.00,CLR,,0.01,WeatherDisplay:10.37,2013-01-16 18:51:00,
2013-01-16 12:56:00,48.0,20.9,30.09,North,0,8.1,8.1,34,0.00,CLR,,0.01,WeatherDisplay:10.37,2013-01-16 18:56:00,
2013-01-16 13:01:00,47.5,20.5,30.08,SW,225,5.8,5.8,34,0.00,CLR,,0.01,WeatherDisplay:10.37,2013-01-16 19:01:00,
2013-01-16 13:06:00,47.3,19.6,30.08,West,270,6.0,6.0,33,0.00,CLR,,0.01,WeatherDisplay:10.37,2013-01-16 19:06:00,
2013-01-16 13:11:00,48.0,20.2,30.08,West,270,5.8,5.8,33,0.00,CLR,,0.01,WeatherDisplay:10.37,2013-01-16 19:11:00,
2013-01-16 13:16:00,49.5,20.8,30.08,North,0,3.5,3.5,32,0.00,CLR,,0.01,WeatherDisplay:10.37,2013-01-16 19:16:00,
2013-01-16 13:21:00,48.7,20.2,30.08,North,0,3.5,3.5,32,0.00,CLR,,0.01,WeatherDisplay:10.37,2013-01-16 19:21:00,
2013-01-16 13:26:00,48.7,21.6,30.08,SW,225,5.8,5.8,34,0.00,CLR,,0.01,WeatherDisplay:10.37,2013-01-16 19:26:00,
2013-01-16 13:31:00,50.0,21.3,30.08,West,270,5.8,5.8,32,0.00,CLR,,0.01,WeatherDisplay:10.37,2013-01-16 19:31:00,
2013-01-16 13:36:00,49.5,20.0,30.07,WNW,292,6.9,6.9,31,0.00,CLR,,0.01,WeatherDisplay:10.37,2013-01-16 19:36:00,
2013-01-16 13:41:00,50.2,20.7,30.07,SW,225,4.6,4.6,31,0.00,CLR,,0.01,WeatherDisplay:10.37,2013-01-16 19:41:00,
2013-01-16 13:46:00,50.7,19.6,30.08,East,90,4.6,4.6,29,0.00,CLR,,0.01,WeatherDisplay:10.37,2013-01-16 19:46:00,
2013-01-16 13:51:00,50.7,19.6,30.07,NW,315,5.8,5.8,29,0.00,CLR,,0.01,WeatherDisplay:10.37,2013-01-16 19:51:00,
2013-01-16 13:56:00,50.2,19.1,30.06,NW,315,6.9,6.9,29,0.00,CLR,,0.01,WeatherDisplay:10.37,2013-01-16 19:56:00,
2013-01-16 14:01:00,50.2,19.1,30.07,West,270,3.5,3.5,29,0.00,CLR,,0.01,WeatherDisplay:10.37,2013-01-16 20:01:00,
2013-01-16 14:06:00,50.2,19.1,30.07,West,270,3.5,3.5,29,0.00,CLR,,0.01,WeatherDisplay:10.37,2013-01-16 20:06:00,
2013-01-16 14:11:00,50.2,19.1,30.06,North,0,5.8,5.8,29,0.00,CLR,,0.01,WeatherDisplay:10.37,2013-01-16 20:11:00,
2013-01-16 14:16:00,50.0,18.9,30.06,North,0,8.1,8.1,29,0.00,CLR,,0.01,WeatherDisplay:10.37,2013-01-16 20:16:00,
2013-01-16 14:21:00,49.3,19.1,30.07,North,0,10.4,10.4,30,0.00,CLR,,0.01,WeatherDisplay:10.37,2013-01-16 20:21:00,
2013-01-16 14:26:00,49.6,19.4,30.06,East,90,11.5,11.5,30,0.00,CLR,,0.01,WeatherDisplay:10.37,2013-01-16 20:26:00,
2013-01-16 14:31:00,49.7,19.5,30.06,NW,309,2.0,8.0,30,0.00,CLR,,0.01,WeatherDisplay:10.37,2013-01-16 20:31:00,
2013-01-16 14:36:00,50.2,19.1,30.06,NNE,22,9.2,9.2,29,0.00,CLR,,0.01,WeatherDisplay:10.37,2013-01-16 20:36:00,
2013-01-16 14:41:00,51.1,19.9,30.06,NW,313,5.0,8.0,29,0.00,CLR,,0.01,WeatherDisplay:10.37,2013-01-16 20:41:00,
2013-01-16 14:46:00,51.3,20.0,30.05,North,0,3.5,3.5,29,0.00,CLR,,0.01,WeatherDisplay:10.37,2013-01-16 20:46:00,
2013-01-16 14:51:00,51.3,19.2,30.06,NW,315,6.9,6.9,28,0.00,CLR,,0.01,WeatherDisplay:10.37,2013-01-16 20:51:00,
2013-01-16 14:56:00,50.9,18.9,30.06,NW,314,3.0,9.0,28,0.00,CLR,,0.01,WeatherDisplay:10.37,2013-01-16 20:56:00,
2013-01-16 15:01:00,52.0,19.0,30.06,NW,315,8.1,8.1,27,0.00,CLR,,0.01,WeatherDisplay:10.37,2013-01-16 21:01:00,
2013-01-16 15:06:00,51.4,19.4,30.06,NW,315,5.8,5.8,28,0.00,CLR,,0.01,WeatherDisplay:10.37,2013-01-16 21:06:00,
2013-01-16 15:11:00,51.1,19.1,30.06,NNW,343,5.0,8.0,28,0.00,CLR,,0.01,WeatherDisplay:10.37,2013-01-16 21:11:00,
2013-01-16 15:16:00,51.4,20.2,30.05,NW,315,3.5,3.5,29,0.00,CLR,,0.01,WeatherDisplay:10.37,2013-01-16 21:16:00,
2013-01-16 15:21:00,51.1,19.1,30.06,NW,315,5.8,5.8,28,0.00,CLR,,0.01,WeatherDisplay:10.37,2013-01-16 21:21:00,
2013-01-16 15:26:00,50.9,19.7,30.06,NW,315,5.8,5.8,29,0.00,CLR,,0.01,WeatherDisplay:10.37,2013-01-16 21:26:00,
2013-01-16 15:31:00,51.3,19.2,30.05,WNW,289,3.0,9.0,28,0.00,CLR,,0.01,WeatherDisplay:10.37,2013-01-16 21:31:00,
2013-01-16 15:36:00,51.3,19.2,30.06,North,0,5.8,5.8,28,0.00,CLR,,0.01,WeatherDisplay:10.37,2013-01-16 21:36:00,
2013-01-16 15:41:00,51.8,19.7,30.06,WNW,301,5.0,8.0,28,0.00,CLR,,0.01,WeatherDisplay:10.37,2013-01-16 21:41:00,
2013-01-16 15:46:00,50.7,18.8,30.06,WNW,292,5.8,5.8,28,0.00,CLR,,0.01,WeatherDisplay:10.37,2013-01-16 21:46:00,
2013-01-16 15:51:00,50.2,19.1,30.06,WNW,292,6.9,6.9,29,0.00,CLR,,0.01,WeatherDisplay:10.37,2013-01-16 21:51:00,
2013-01-16 15:56:00,50.0,20.5,30.06,NNW,329,3.0,6.0,31,0.00,CLR,,0.01,WeatherDisplay:10.37,2013-01-16 21:56:00,
2013-01-16 16:01:00,49.8,21.1,30.07,NW,315,8.1,8.1,32,0.00,CLR,,0.01,WeatherDisplay:10.37,2013-01-16 22:01:00,
2013-01-16 16:06:00,49.8,21.1,30.06,NW,315,8.3,8.3,32,0.00,CLR,,0.01,WeatherDisplay:10.37,2013-01-16 22:06:00,
2013-01-16 16:11:00,49.1,21.9,30.06,NW,314,3.0,8.0,34,0.00,CLR,,0.01,WeatherDisplay:10.37,2013-01-16 22:11:00,
2013-01-16 16:16:00,49.1,21.9,30.06,NW,315,5.8,5.8,34,0.00,CLR,,0.01,WeatherDisplay:10.37,2013-01-16 22:16:00,
2013-01-16 16:21:00,49.3,22.1,30.06,NW,307,2.0,6.0,34,0.00,CLR,,0.01,WeatherDisplay:10.37,2013-01-16 22:21:00,
2013-01-16 16:26:00,49.1,21.9,30.06,North,0,5.8,5.8,34,0.00,CLR,,0.01,WeatherDisplay:10.37,2013-01-16 22:26:00,
2013-01-16 16:31:00,48.7,22.3,30.06,West,270,5.8,5.8,35,0.00,CLR,,0.01,WeatherDisplay:10.37,2013-01-16 22:31:00,
2013-01-16 16:36:00,48.7,22.3,30.06,West,261,2.0,7.0,35,0.00,CLR,,0.01,WeatherDisplay:10.37,2013-01-16 22:36:00,
2013-01-16 16:41:00,48.7,22.3,30.07,NNW,338,3.5,3.5,35,0.00,CLR,,0.01,WeatherDisplay:10.37,2013-01-16 22:41:00,
2013-01-16 16:46:00,48.4,22.0,30.07,NW,308,1.0,6.0,35,0.00,CLR,,0.01,WeatherDisplay:10.37,2013-01-16 22:46:00,
2013-01-16 16:51:00,48.2,22.5,30.07,West,281,2.0,5.0,36,0.00,CLR,,0.01,WeatherDisplay:10.37,2013-01-16 22:51:00,
2013-01-16 16:56:00,48.0,23.0,30.07,WNW,292,3.5,3.5,37,0.00,CLR,,0.01,WeatherDisplay:10.37,2013-01-16 22:56:00,
2013-01-16 17:01:00,47.7,23.3,30.08,West,268,2.0,8.0,38,0.00,CLR,,0.01,WeatherDisplay:10.37,2013-01-16 23:01:00,
2013-01-16 17:06:00,47.3,23.6,30.08,West,273,2.0,4.0,39,0.00,CLR,,0.01,WeatherDisplay:10.37,2013-01-16 23:06:00,
2013-01-16 17:11:00,46.8,23.7,30.08,West,270,3.5,3.5,40,0.00,CLR,,0.01,WeatherDisplay:10.37,2013-01-16 23:11:00,
2013-01-16 17:16:00,46.6,24.1,30.08,West,270,2.0,7.0,41,0.00,CLR,,0.01,WeatherDisplay:10.37,2013-01-16 23:16:00,
2013-01-16 17:21:00,46.2,23.8,30.08,NW,315,3.5,3.5,41,0.00,CLR,,0.01,WeatherDisplay:10.37,2013-01-16 23:21:00,
2013-01-16 17:26:00,46.0,24.2,30.09,West,278,1.0,4.0,42,0.00,CLR,,0.01,WeatherDisplay:10.37,2013-01-16 23:26:00,
2013-01-16 17:31:00,45.3,23.5,30.09,West,280,1.0,2.0,42,0.00,CLR,,0.01,WeatherDisplay:10.37,2013-01-16 23:31:00,
2013-01-16 17:36:00,44.8,23.6,30.09,West,270,3.5,3.5,43,0.00,CLR,,0.01,WeatherDisplay:10.37,2013-01-16 23:36:00,
2013-01-16 17:41:00,44.6,23.5,30.09,West,270,2.3,2.3,43,0.00,CLR,,0.01,WeatherDisplay:10.37,2013-01-16 23:41:00,
2013-01-16 17:46:00,44.3,23.7,30.10,West,270,0.0,2.0,44,0.00,CLR,,0.01,WeatherDisplay:10.37,2013-01-16 23:46:00,
2013-01-16 17:51:00,43.8,23.8,30.10,West,270,0.0,2.0,45,0.00,CLR,,0.01,WeatherDisplay:10.37,2013-01-16 23:51:00,
2013-01-16 17:56:00,43.4,24.0,30.10,West,267,0.0,4.0,46,0.00,CLR,,0.01,WeatherDisplay:10.37,2013-01-16 23:56:00,
2013-01-16 18:01:00,43.2,23.8,30.10,WSW,257,1.0,2.0,46,0.00,CLR,,0.01,WeatherDisplay:10.37,2013-01-17 00:01:00,
2013-01-16 18:06:00,43.2,23.8,30.10,SW,234,1.0,2.0,46,0.00,CLR,,0.01,WeatherDisplay:10.37,2013-01-17 00:06:00,
2013-01-16 18:11:00,42.2,23.9,30.10,SW,225,0.0,2.0,48,0.00,CLR,,0.01,WeatherDisplay:10.37,2013-01-17 00:11:00,
2013-01-16 18:16:00,41.7,23.5,30.11,SW,225,0.0,0.0,48,0.00,CLR,,0.01,WeatherDisplay:10.37,2013-01-17 00:16:00,
2013-01-16 18:21:00,41.2,23.4,30.11,SW,225,1.1,0.0,49,0.00,CLR,,0.01,WeatherDisplay:10.37,2013-01-17 00:21:00,
2013-01-16 18:26:00,40.8,25.0,30.11,SW,225,0.0,0.0,53,0.00,CLR,,0.01,WeatherDisplay:10.37,2013-01-17 00:26:00,
2013-01-16 18:31:00,40.2,24.9,30.11,SW,225,0.0,1.0,54,0.00,CLR,,0.01,WeatherDisplay:10.37,2013-01-17 00:31:00,
2013-01-16 18:36:00,39.6,24.3,30.11,South,180,0.0,0.0,54,0.00,CLR,,0.01,WeatherDisplay:10.37,2013-01-17 00:36:00,
2013-01-16 18:41:00,39.2,24.8,30.11,SSW,195,0.0,0.0,56,0.00,CLR,,0.01,WeatherDisplay:10.37,2013-01-17 00:41:00,
2013-01-16 18:46:00,38.7,24.7,30.11,South,180,0.0,0.0,57,0.00,CLR,,0.01,WeatherDisplay:10.37,2013-01-17 00:46:00,
2013-01-16 18:51:00,38.3,25.2,30.11,South,180,0.0,0.0,59,0.00,CLR,,0.01,WeatherDisplay:10.37,2013-01-17 00:51:00,
2013-01-16 18:56:00,37.8,25.2,30.11,South,180,0.0,0.0,60,0.00,CLR,,0.01,WeatherDisplay:10.37,2013-01-17 00:56:00,
2013-01-16 19:01:00,37.4,25.6,30.11,South,180,0.0,0.0,62,0.00,CLR,,0.01,WeatherDisplay:10.37,2013-01-17 01:01:00,
2013-01-16 19:06:00,37.0,24.4,30.11,South,180,0.0,0.0,60,0.00,CLR,,0.01,WeatherDisplay:10.37,2013-01-17 01:06:00,
2013-01-16 19:11:00,36.5,23.9,30.11,South,180,0.0,0.0,60,0.00,CLR,,0.01,WeatherDisplay:10.37,2013-01-17 01:11:00,
2013-01-16 19:16:00,36.0,23.5,30.12,South,180,0.0,0.0,60,0.00,CLR,,0.01,WeatherDisplay:10.37,2013-01-17 01:16:00,
2013-01-16 19:21:00,35.6,23.4,30.11,South,180,0.0,1.0,61,0.00,CLR,,0.01,WeatherDisplay:10.37,2013-01-17 01:21:00,
2013-01-16 19:26:00,35.2,23.5,30.12,SSW,201,0.0,2.0,62,0.00,CLR,,0.01,WeatherDisplay:10.37,2013-01-17 01:26:00,
2013-01-16 19:31:00,35.1,24.1,30.12,West,270,1.1,0.0,64,0.00,CLR,,0.01,WeatherDisplay:10.37,2013-01-17 01:31:00,
2013-01-16 19:36:00,34.7,23.8,30.12,West,270,1.1,0.0,64,0.00,CLR,,0.01,WeatherDisplay:10.37,2013-01-17 01:36:00,
2013-01-16 19:41:00,34.5,23.9,30.12,West,270,0.0,2.0,65,0.00,CLR,,0.01,WeatherDisplay:10.37,2013-01-17 01:41:00,
2013-01-16 19:46:00,34.3,24.2,30.12,West,270,0.0,0.0,66,0.00,CLR,,0.01,WeatherDisplay:10.37,2013-01-17 01:46:00,
2013-01-16 19:51:00,34.0,24.5,30.12,West,270,0.0,2.0,68,0.00,CLR,,0.01,WeatherDisplay:10.37,2013-01-17 01:51:00,
2013-01-16 19:56:00,33.8,24.4,30.12,West,270,1.1,0.0,68,0.00,CLR,,0.01,WeatherDisplay:10.37,2013-01-17 01:56:00,
2013-01-16 20:01:00,33.4,24.4,30.12,West,270,1.1,0.0,69,0.00,CLR,,0.01,WeatherDisplay:10.37,2013-01-17 02:01:00,
2013-01-16 20:06:00,33.4,24.4,30.12,West,270,0.0,1.0,69,0.00,CLR,,0.01,WeatherDisplay:10.37,2013-01-17 02:06:00,
2013-01-16 20:11:00,33.1,24.4,30.12,West,270,0.0,0.0,70,0.00,CLR,,0.01,WeatherDisplay:10.37,2013-01-17 02:11:00,
2013-01-16 20:16:00,32.7,24.0,30.12,West,270,0.0,0.0,70,0.00,CLR,,0.01,WeatherDisplay:10.37,2013-01-17 02:16:00,
2013-01-16 20:21:00,32.7,24.0,30.12,West,270,0.0,0.0,70,0.00,CLR,,0.01,WeatherDisplay:10.37,2013-01-17 02:21:00,
2013-01-16 20:26:00,32.5,24.5,30.12,West,270,0.0,0.0,72,0.00,CLR,,0.01,WeatherDisplay:10.37,2013-01-17 02:26:00,
2013-01-16 20:31:00,32.2,24.5,30.12,West,270,0.0,0.0,73,0.00,CLR,,0.01,WeatherDisplay:10.37,2013-01-17 02:31:00,
2013-01-16 20:36:00,31.8,24.5,30.12,West,270,0.0,0.0,74,0.00,CLR,,0.01,WeatherDisplay:10.37,2013-01-17 02:36:00,
2013-01-16 20:41:00,31.5,24.1,30.12,West,270,1.1,1.1,74,0.00,CLR,,0.01,WeatherDisplay:10.37,2013-01-17 02:41:00,
2013-01-16 20:46:00,31.3,24.3,30.12,West,270,1.0,2.0,75,0.00,CLR,,0.01,WeatherDisplay:10.37,2013-01-17 02:46:00,
2013-01-16 20:51:00,31.1,24.4,30.12,West,270,1.1,1.1,76,0.00,CLR,,0.01,WeatherDisplay:10.37,2013-01-17 02:51:00,
2013-01-16 20:56:00,30.7,24.4,30.12,West,270,1.1,0.0,77,0.00,CLR,,0.01,WeatherDisplay:10.37,2013-01-17 02:56:00,
2013-01-16 21:01:00,30.6,24.5,30.12,West,270,0.0,1.0,78,0.00,CLR,,0.01,WeatherDisplay:10.37,2013-01-17 03:01:00,
2013-01-16 21:06:00,30.4,24.6,30.12,West,270,1.1,0.0,79,0.00,CLR,,0.01,WeatherDisplay:10.37,2013-01-17 03:06:00,
2013-01-16 21:11:00,30.2,24.5,30.13,West,270,0.0,1.0,79,0.00,CLR,,0.01,WeatherDisplay:10.37,2013-01-17 03:11:00,
2013-01-16 21:16:00,30.1,24.9,30.13,West,270,1.0,2.0,81,0.00,CLR,,0.01,WeatherDisplay:10.37,2013-01-17 03:16:00,
2013-01-16 21:21:00,30.0,25.2,30.13,West,270,1.1,0.0,82,0.00,CLR,,0.01,WeatherDisplay:10.37,2013-01-17 03:21:00,
2013-01-16 21:26:00,29.8,25.0,30.13,West,270,0.0,2.0,82,0.00,CLR,,0.01,WeatherDisplay:10.37,2013-01-17 03:26:00,
2013-01-16 21:31:00,29.7,25.1,30.13,West,270,1.1,1.1,83,0.00,CLR,,0.01,WeatherDisplay:10.37,2013-01-17 03:31:00,
2013-01-16 21:36:00,29.5,25.2,30.13,West,270,1.0,2.0,84,0.00,CLR,,0.01,WeatherDisplay:10.37,2013-01-17 03:36:00,
2013-01-16 21:41:00,29.3,25.4,30.13,West,270,1.0,2.0,85,0.00,CLR,,0.01,WeatherDisplay:10.37,2013-01-17 03:41:00,
2013-01-16 21:46:00,29.3,25.4,30.13,West,270,1.0,2.0,85,0.00,CLR,,0.01,WeatherDisplay:10.37,2013-01-17 03:46:00,
2013-01-16 21:51:00,29.3,25.6,30.13,West,270,1.1,1.1,86,0.00,CLR,,0.01,WeatherDisplay:10.37,2013-01-17 03:51:00,
2013-01-16 21:56:00,29.1,25.5,30.13,West,270,1.0,2.0,86,0.00,CLR,,0.01,WeatherDisplay:10.37,2013-01-17 03:56:00,
2013-01-16 22:01:00,29.1,25.5,30.13,West,270,1.1,1.1,86,0.00,CLR,,0.01,WeatherDisplay:10.37,2013-01-17 04:01:00,
2013-01-16 22:06:00,29.1,25.5,30.13,West,270,1.1,1.1,86,0.00,CLR,,0.01,WeatherDisplay:10.37,2013-01-17 04:06:00,
2013-01-16 22:11:00,28.8,25.1,30.13,West,270,0.0,2.0,86,0.00,CLR,,0.01,WeatherDisplay:10.37,2013-01-17 04:11:00,
2013-01-16 22:16:00,28.8,25.4,30.13,West,270,1.1,0.0,87,0.00,CLR,,0.01,WeatherDisplay:10.37,2013-01-17 04:16:00,
2013-01-16 22:21:00,28.6,25.2,30.12,West,270,0.0,1.0,87,0.00,CLR,,0.01,WeatherDisplay:10.37,2013-01-17 04:21:00,
2013-01-16 22:26:00,28.4,25.0,30.13,West,270,0.0,0.0,87,0.00,CLR,,0.01,WeatherDisplay:10.37,2013-01-17 04:26:00,
2013-01-16 22:31:00,28.2,23.7,30.13,SE,135,0.0,0.0,83,0.00,CLR,,0.01,WeatherDisplay:10.37,2013-01-17 04:31:00,
2013-01-16 22:36:00,28.2,23.4,30.13,SE,135,0.0,0.0,82,0.00,CLR,,0.01,WeatherDisplay:10.37,2013-01-17 04:36:00,
2013-01-16 22:41:00,28.2,23.4,30.13,SE,135,0.0,0.0,82,0.00,CLR,,0.01,WeatherDisplay:10.37,2013-01-17 04:41:00,
2013-01-16 22:46:00,27.9,23.1,30.13,SE,135,0.0,0.0,82,0.00,CLR,,0.01,WeatherDisplay:10.37,2013-01-17 04:46:00,
2013-01-16 22:51:00,27.9,23.1,30.12,SSE,159,0.0,0.0,82,0.00,CLR,,0.01,WeatherDisplay:10.37,2013-01-17 04:51:00,
2013-01-16 22:56:00,27.9,23.1,30.12,West,270,1.1,1.1,82,0.00,CLR,,0.01,WeatherDisplay:10.37,2013-01-17 04:56:00,
2013-01-16 23:00:00,27.9,23.4,30.13,West,270,0.0,0.0,83,0.00,CLR,,0.01,WeatherDisplay:10.37,2013-01-17 05:00:00,
2013-01-16 23:01:00,27.9,23.4,30.13,West,270,0.0,0.0,83,0.00,CLR,,0.01,WeatherDisplay:10.37,2013-01-17 05:01:00,
2013-01-16 23:02:00,27.9,23.4,30.13,West,270,0.0,0.0,83,0.00,CLR,,0.01,WeatherDisplay:10.37,2013-01-17 05:02:00,
2013-01-16 23:03:00,27.9,23.4,30.13,West,270,0.0,0.0,83,0.00,CLR,,0.01,WeatherDisplay:10.37,2013-01-17 05:03:00,
2013-01-16 23:08:00,27.7,23.2,30.13,West,270,1.1,0.0,83,0.00,CLR,,0.01,WeatherDisplay:10.37,2013-01-17 05:08:00,
2013-01-16 23:13:00,27.5,23.0,30.13,West,270,1.1,0.0,83,0.00,CLR,,0.01,WeatherDisplay:10.37,2013-01-17 05:13:00,
2013-01-16 23:18:00,27.5,23.0,30.13,West,270,1.1,1.1,83,0.00,CLR,,0.01,WeatherDisplay:10.37,2013-01-17 05:18:00,
2013-01-16 23:23:00,27.3,22.8,30.13,West,270,0.0,0.0,83,0.00,CLR,,0.01,WeatherDisplay:10.37,2013-01-17 05:23:00,
2013-01-16 23:28:00,27.1,22.7,30.13,West,270,1.1,1.1,83,0.00,CLR,,0.01,WeatherDisplay:10.37,2013-01-17 05:28:00,
2013-01-16 23:33:00,27.1,22.9,30.13,NW,315,1.1,1.1,84,0.00,CLR,,0.01,WeatherDisplay:10.37,2013-01-17 05:33:00,
2013-01-16 23:38:00,27.1,22.9,30.13,NW,315,1.1,1.1,84,0.00,CLR,,0.01,WeatherDisplay:10.37,2013-01-17 05:38:00,
2013-01-16 23:43:00,27.1,22.9,30.13,West,270,1.1,1.1,84,0.00,CLR,,0.01,WeatherDisplay:10.37,2013-01-17 05:43:00,
2013-01-16 23:48:00,27.1,22.9,30.14,West,270,1.1,1.1,84,0.00,CLR,,0.01,WeatherDisplay:10.37,2013-01-17 05:48:00,
2013-01-16 23:53:00,27.1,22.9,30.14,West,270,1.1,0.0,84,0.00,CLR,,0.01,WeatherDisplay:10.37,2013-01-17 05:53:00,
2013-01-16 23:58:00,27.1,23.2,30.14,West,270,1.1,1.1,85,0.00,RA,,0.00,WeatherDisplay:10.37,2013-01-17 05:58:00,